Regional Weather Roundup
Issued by NWS State College, PA

Home | Current Version | Previous Version | Graphics & Text | Print | Product List | Glossary Off
Versions: 1 2 3 4 5 6 7 8 9 10 11 12 13 14 15 16 17 18 19 20 21 22 23 24 25 26 27 28 29 30 31 32 33 34 35 36 37 38 39 40 41 42 43 44 45 46 47 48 49 50

000
ASUS41 KCTP 062310
RWRCTP

REGIONAL WEATHER ROUNDUP
NATIONAL WEATHER SERVICE STATE COLLEGE PA
700 PM EDT FRI MAY 06 2016

Note: "fair" indicates few or no clouds below 12,000 feet with no
significant weather and/or obstructions to visibility.

* = STATION THAT DOES NOT REPORT PRECIPITATION /E.G. RAIN...SNOW...ETC/
    THUNDER OR FOG.

PAZ002>004-007>009-013>016-020>023-029>032-070000-
WESTERN PENNSYLVANIA

CITY           SKY/WX    TMP DP  RH WIND       PRES   REMARKS
ERIE           PTSUNNY   60  41  49 NW3       29.81F
MEADVILLE      PTSUNNY   59  34  39 N13G18    29.81S
FRANKLIN*      CLOUDY    57  32  38 NE12      29.82R
NEW CASTLE     MOCLDY    62  33  33 N15G22    29.79S
BEAVER COUNTY  CLOUDY    61  34  36 N10G18    29.79R
BUTLER*        CLOUDY    55  45  67 N3        29.82R
PITTSBURGH INT LGT RAIN  59  42  53 NE12      29.78R
PITTSBURGH     LGT RAIN  52  45  77 E7        29.79R
INDIANA*       CLOUDY    50  46  87 VRB3      29.82S
LATROBE        LGT RAIN  50  50 100 NE9       29.80R
WASHINGTON CO* CLOUDY    61  36  39 N13G18    29.79R
$$

PAZ004>006-010>012-017>019-024>028-033>037-041-042-045-046-049>053-070000-
CENTRAL PENNSYLVANIA

CITY           SKY/WX    TMP DP  RH WIND       PRES   REMARKS
BRADFORD       CLOUDY    48  39  71 N6        29.80S
DUBOIS         CLOUDY    48  41  76 N8        29.78S
CLEARFIELD     CLOUDY    50  41  71 N9        29.77S
JOHNSTOWN      LGT RAIN  46  39  76 N10       29.75S
ALTOONA        CLOUDY    49  43  80 N9        29.73F
STATE COLLEGE  CLOUDY    50  45  81 NE6       29.75R
WILLIAMSPORT   CLOUDY    57  47  69 NE6       29.71S
SELINSGROVE    LGT RAIN  54  50  86 NE8       29.71R
FT INDIANTOWN  DRIZZLE   52  52 100 NE5       29.68S FOG
CAPITAL CITY   LGT RAIN  54  50  86 NE6       29.68R FOG
HARRISBURG     CLOUDY    53  49  86 NE7       29.67S
YORK           LGT RAIN  52  50  93 N7        29.66S FOG
$$

PAZ038>040-043-044-047-048-054-055-060>062-067>071-070000-
EASTERN PENNSYLVANIA

CITY           SKY/WX    TMP DP  RH WIND       PRES   REMARKS
SCRANTON       CLOUDY    54  49  83 NE8       29.73R
MOUNT POCONO   LGT RAIN  46  46 100 E12G22    29.73R FOG
ALLENTOWN      CLOUDY    52  48  86 E17       29.72R
QUAKERTOWN*    CLOUDY    48  48 100 E13G20    29.71R
READING        LGT RAIN  52  48  86 NE9G21    29.67R FOG
LANCASTER      LGT RAIN  51  49  92 NE12      29.66S FOG
COATESVILLE    HVY RAIN  50  50 100 MISG      29.66R
POTTSTOWN      CLOUDY    50  49  96 NE12      29.69R FOG
BLUE BELL      CLOUDY    50  48  93 E10       29.68R
DOYLESTOWN     CLOUDY    47  47 100 VRB6      29.70R
WILLOW GROVE   NOT AVBL
NORTH PHILA    LGT RAIN  53  32  44 E13       29.70S
PHILADELPHIA   CLOUDY    54  49  83 SE10      29.69R
$$



USA.gov is the U.S. government's official web portal to all federal, state and local government web resources and services.